Beach, ND

8:57 AM MST on February 20, 2017 (GMT -0700)
Beach

Weather History for K20U - April, 2013

Change the Weather History Date:

Friday, April 5, 2013

  Actual Average (KGDV) Record (KGDV)
Temperature  
Mean Temperature 47 °F -  
Max Temperature 62 °F 47 °F 73 °F (2006)
Min Temperature 32 °F 25 °F 15 °F (2007)
Degree Days  
Heating Degree Days 18    
Moisture  
Dew Point 31 °F    
Average Humidity 67    
Maximum Humidity 100    
Minimum Humidity 34    
Precipitation  
Precipitation 0.01 in - - ()
Sea Level Pressure  
Sea Level Pressure 29.73 in    
Wind  
Wind Speed 17 mph (SSE)    
Max Wind Speed 26 mph    
Max Gust Speed 37 mph    
Visibility 10 miles    
Events Rain    
Averages and records for this station are not official NWS values.
T = Trace of Precipitation, MM = Missing Value Source: NWS Daily Summary

Daily Weather History Graph

Daily Weather History Graph

Search for Another Location

Airport or City:

Trip Planner

Search our weather history database for the weather conditions in past years. The results will help you decide how hot, cold, wet, or windy it might be!

Date:

Astronomy

Apr. 05, 2013 Rise Set
Actual Time 6:26 AM MDT 7:31 PM MDT
Civil Twilight 5:55 AM MDT 8:02 PM MDT
Nautical Twilight 5:18 AM MDT 8:39 PM MDT
Astronomical Twilight 4:39 AM MDT 9:19 PM MDT
Moon 3:53 AM MDT (4/5) 2:41 PM MDT (4/5)
Length of Visible Light 14h 06m
Length of Day
13h 04m
Waning Crescent, 23% of the Moon is Illuminated
Apr 5
Waning Crescent
Apr 10
New
Apr 18
First Quarter
Apr 25
Full
May 2
Last Quarter

Hourly Weather History & Observations

Time (MDT) Temp. Windchill Dew Point Humidity Pressure Visibility Wind Dir Wind Speed Gust Speed Precip Events Conditions
12:15 AM 35.6 °F 26.2 °F 26.6 °F 70% 29.96 in 10.0 mi SE 15.0 mph 25.3 mph N/A   Overcast
12:35 AM 35.6 °F 24.2 °F 26.6 °F 70% 29.95 in 10.0 mi SE 21.9 mph 25.3 mph N/A   Overcast
12:55 AM 35.6 °F 24.2 °F 26.6 °F 70% 29.95 in 10.0 mi SE 21.9 mph 27.6 mph N/A   Overcast
1:15 AM 35.6 °F 24.8 °F 26.6 °F 70% 29.93 in 10.0 mi SE 19.6 mph 27.6 mph N/A   Overcast
1:35 AM 33.8 °F 22.5 °F 26.6 °F 75% 29.93 in 10.0 mi SE 19.6 mph 31.1 mph N/A   Overcast
1:55 AM 32.0 °F 20.1 °F 24.8 °F 75% 29.92 in 10.0 mi SE 19.6 mph 25.3 mph N/A   Overcast
2:15 AM 32.0 °F 21.2 °F 24.8 °F 75% 29.92 in 10.0 mi SE 16.1 mph 21.9 mph N/A   Overcast
2:35 AM 32.0 °F 20.1 °F 24.8 °F 75% 29.91 in 10.0 mi SE 19.6 mph 26.5 mph N/A   Overcast
2:55 AM 33.8 °F 21.9 °F 24.8 °F 70% 29.90 in 10.0 mi SE 21.9 mph 27.6 mph N/A   Overcast
3:15 AM 32.0 °F 21.2 °F 24.8 °F 75% 29.88 in 10.0 mi SE 16.1 mph 26.5 mph N/A   Overcast
3:35 AM 32.0 °F 20.5 °F 24.8 °F 75% 29.88 in 10.0 mi SE 18.4 mph 24.2 mph N/A   Overcast
3:55 AM 33.8 °F 21.6 °F 24.8 °F 70% 29.86 in 10.0 mi SE 23.0 mph 29.9 mph N/A   Overcast
4:15 AM 32.0 °F 19.5 °F 24.8 °F 75% 29.86 in 10.0 mi SE 21.9 mph 27.6 mph N/A   Overcast
4:35 AM 32.0 °F 20.1 °F 24.8 °F 75% 29.86 in 10.0 mi SE 19.6 mph 26.5 mph N/A   Overcast
4:55 AM 32.0 °F 19.5 °F 24.8 °F 75% 29.83 in 10.0 mi SE 21.9 mph 31.1 mph N/A   Overcast
5:15 AM 32.0 °F 19.2 °F 24.8 °F 75% 29.83 in 10.0 mi SE 23.0 mph 29.9 mph N/A   Mostly Cloudy
5:35 AM 32.0 °F 19.8 °F 24.8 °F 75% 29.82 in 10.0 mi SE 20.7 mph 27.6 mph N/A   Partly Cloudy
5:55 AM 32.0 °F 19.5 °F 24.8 °F 75% 29.81 in 10.0 mi SE 21.9 mph 28.8 mph N/A   Clear
6:15 AM 32.0 °F 20.1 °F 24.8 °F 75% 29.80 in 10.0 mi SE 19.6 mph 27.6 mph N/A   Scattered Clouds
6:35 AM 32.0 °F 20.1 °F 24.8 °F 75% 29.79 in 10.0 mi SE 19.6 mph 25.3 mph N/A   Scattered Clouds
6:55 AM 32.0 °F 20.1 °F 24.8 °F 75% 29.80 in 10.0 mi SE 19.6 mph 26.5 mph N/A   Mostly Cloudy
7:15 AM 32.0 °F 19.2 °F 24.8 °F 75% 29.80 in 10.0 mi SE 23.0 mph 31.1 mph N/A   Mostly Cloudy
7:35 AM 32.0 °F 20.8 °F 24.8 °F 75% 29.79 in 10.0 mi SE 17.3 mph 25.3 mph N/A   Partly Cloudy
7:55 AM 32.0 °F 19.5 °F 26.6 °F 80% 29.79 in 10.0 mi SSE 21.9 mph 28.8 mph N/A   Partly Cloudy
8:15 AM 32.0 °F 20.1 °F 26.6 °F 80% 29.79 in 10.0 mi SSE 19.6 mph 29.9 mph N/A   Mostly Cloudy
8:35 AM 32.0 °F 18.9 °F 26.6 °F 80% 29.77 in 10.0 mi SSE 24.2 mph 32.2 mph N/A   Overcast
8:55 AM 32.0 °F 19.8 °F 26.6 °F 80% 29.76 in 10.0 mi SSE 20.7 mph 28.8 mph N/A   Scattered Clouds
9:15 AM 32.0 °F 19.2 °F 26.6 °F 80% 29.76 in 10.0 mi SSE 23.0 mph 36.8 mph N/A   Clear
9:35 AM 32.0 °F 18.6 °F 26.6 °F 80% 29.75 in 10.0 mi SSE 25.3 mph 34.5 mph N/A   Clear
9:55 AM 33.8 °F 21.0 °F 26.6 °F 75% 29.74 in 10.0 mi SSE 25.3 mph 34.5 mph N/A   Clear
10:15 AM 35.6 °F 23.2 °F 26.6 °F 70% 29.73 in 10.0 mi SSE 26.5 mph 33.4 mph N/A   Clear
10:35 AM 37.4 °F 25.9 °F 28.4 °F 70% 29.72 in 10.0 mi SSE 25.3 mph 29.9 mph N/A   Clear
10:55 AM 39.2 °F 28.5 °F 28.4 °F 65% 29.72 in 10.0 mi SSE 24.2 mph 32.2 mph N/A   Clear
11:15 AM 39.2 °F 28.5 °F 28.4 °F 65% 29.70 in 10.0 mi SSE 24.2 mph 32.2 mph N/A   Clear
11:35 AM 41.0 °F 31.4 °F 28.4 °F 61% 29.69 in 10.0 mi SSE 21.9 mph 28.8 mph N/A   Clear
11:55 AM 44.6 °F 36.6 °F 28.4 °F 53% 29.68 in 10.0 mi SSE 19.6 mph 25.3 mph N/A   Clear
12:15 PM 46.4 °F 39.2 °F 30.2 °F 53% 29.68 in 10.0 mi South 18.4 mph 23.0 mph N/A   Clear
12:35 PM 46.4 °F 39.8 °F 30.2 °F 53% 29.67 in 10.0 mi South 16.1 mph 21.9 mph N/A   Clear
12:55 PM 50.0 °F - 32.0 °F 50% 29.67 in 10.0 mi South 15.0 mph 19.6 mph N/A   Clear
1:15 PM 50.0 °F - 32.0 °F 50% 29.66 in 10.0 mi South 10.4 mph - N/A   Clear
1:35 PM 53.6 °F - 32.0 °F 44% 29.65 in 10.0 mi South 10.4 mph - N/A   Clear
1:55 PM 55.4 °F - 32.0 °F 41% 29.64 in 10.0 mi South 10.4 mph - N/A   Clear
2:15 PM 59.0 °F - 32.0 °F 36% 29.63 in 10.0 mi South 10.4 mph - N/A   Clear
2:35 PM 59.0 °F - 32.0 °F 36% 29.62 in 10.0 mi West 4.6 mph 16.1 mph N/A   Clear
2:55 PM 60.8 °F - 32.0 °F 34% 29.62 in 10.0 mi West 4.6 mph - N/A   Clear
3:15 PM 62.6 °F - 33.8 °F 34% 29.61 in 10.0 mi West 8.1 mph - N/A   Clear
3:35 PM 62.6 °F - 33.8 °F 34% 29.61 in 10.0 mi West 6.9 mph - N/A   Clear
3:55 PM 62.6 °F - 33.8 °F 34% 29.60 in 10.0 mi NNW 11.5 mph - N/A   Clear
4:15 PM 62.6 °F - 33.8 °F 34% 29.60 in 10.0 mi NNW 12.7 mph 18.4 mph N/A Rain Light Rain
4:35 PM 62.6 °F - 33.8 °F 34% 29.60 in 10.0 mi North 8.1 mph - N/A   Clear
4:55 PM 62.6 °F - 33.8 °F 34% 29.60 in 10.0 mi NNE 9.2 mph - N/A   Clear
5:15 PM 60.8 °F - 33.8 °F 36% 29.60 in 10.0 mi North 10.4 mph - N/A   Mostly Cloudy
5:35 PM 60.8 °F - 33.8 °F 36% 29.61 in 10.0 mi NNE 4.6 mph - N/A   Scattered Clouds
5:55 PM 59.0 °F - 33.8 °F 39% 29.61 in 10.0 mi North 4.6 mph - N/A   Clear
6:15 PM 57.2 °F - 32.0 °F 38% 29.62 in 10.0 mi East 9.2 mph - N/A   Partly Cloudy
6:35 PM 55.4 °F - 33.8 °F 44% 29.62 in 10.0 mi ESE 6.9 mph - N/A   Scattered Clouds
6:55 PM 53.6 °F - 35.6 °F 51% 29.62 in 10.0 mi ESE 6.9 mph - N/A   Overcast
7:15 PM 51.8 °F - 35.6 °F 54% 29.62 in 10.0 mi ESE 9.2 mph - N/A   Overcast
7:35 PM 50.0 °F - 37.4 °F 62% 29.64 in 9.0 mi SSE 5.8 mph - N/A Rain Light Rain
7:55 PM 48.2 °F - 41.0 °F 76% 29.66 in 8.0 mi West 5.8 mph - N/A Rain Light Rain
8:15 PM 48.2 °F - 44.6 °F 87% 29.66 in 10.0 mi NNE 3.5 mph - N/A Rain Light Rain
8:55 PM 48.2 °F - 46.4 °F 93% 29.68 in 9.0 mi NW 5.8 mph - N/A Rain Light Rain
9:15 PM 46.4 °F 43.5 °F 46.4 °F 100% 29.68 in 8.0 mi NW 5.8 mph - N/A Rain Light Rain
9:35 PM 46.4 °F - 44.6 °F 93% 29.69 in 10.0 mi Calm Calm - 0.01 in Rain Light Rain
9:55 PM 46.4 °F 43.5 °F 44.6 °F 93% 29.67 in 10.0 mi SSE 5.8 mph - 0.01 in   Overcast
10:15 PM 44.6 °F 41.4 °F 44.6 °F 100% 29.66 in 10.0 mi SSW 5.8 mph - N/A   Overcast
10:35 PM 44.6 °F 41.4 °F 44.6 °F 100% 29.66 in 10.0 mi South 5.8 mph - N/A   Mostly Cloudy
10:55 PM 44.6 °F 43.1 °F 44.6 °F 100% 29.66 in 10.0 mi West 3.5 mph - N/A   Mostly Cloudy
11:15 PM 44.6 °F 43.1 °F 44.6 °F 100% 29.67 in 10.0 mi WSW 3.5 mph - N/A Rain Light Rain
11:35 PM 44.6 °F 40.7 °F 44.6 °F 100% 29.67 in 10.0 mi SW 6.9 mph - N/A   Overcast
11:55 PM 44.6 °F 40.2 °F 44.6 °F 100% 29.67 in 10.0 mi SW 8.1 mph - N/A Rain Light Rain